KB2KRJ Weather Reports


time (UTC)temp
F
wind
direction
speed
knots
gust
knots
rain 1hr
in
rain 24hr
in
rain mn
in
humidity
%
barometer
mb
20260504214536 71 181 0.9 5.2 0.00 0.00 0.00 35 1006.5
20260504213033 71 178 0.9 6.1 0.00 0.00 0.00 33 1006.6
20260504211531 71 153 1.7 7.0 0.00 0.00 0.00 34 1006.8
20260504210030 71 152 0.9 4.3 0.00 0.00 0.00 35 1006.9
20260504204541 72 190 1.7 7.0 0.00 0.00 0.00 34 1006.9
20260504203027 71 146 1.7 7.8 0.00 0.00 0.00 35 1007.1
20260504201526 71 194 0.9 8.7 0.00 0.00 0.00 33 1007.2
20260504200024 71 200 4.3 7.8 0.00 0.00 0.00 33 1007.4
20260504194524 71 250 0.9 7.0 0.00 0.00 0.00 33 1007.4
20260504193023 72 194 2.6 8.7 0.00 0.00 0.00 33 1007.5
20260504191520 70 190 1.7 6.1 0.00 0.00 0.00 37 1007.6
20260504190019 71 221 1.7 12.2 0.00 0.00 0.00 34 1007.8
20260504184523 71 198 2.6 11.3 0.00 0.00 0.00 33 1007.9
20260504183017 71 207 4.3 7.8 0.00 0.00 0.00 36 1007.8
20260504181516 70 182 2.6 7.8 0.00 0.00 0.00 37 1007.9
20260504180012 69 180 1.7 11.3 0.00 0.00 0.00 37 1008.0
20260504174509 67 165 3.5 7.0 0.00 0.00 0.00 37 1008.2
20260504173010 68 196 0.9 5.2 0.00 0.00 0.00 39 1008.4
20260504171507 68 217 3.5 10.4 0.00 0.00 0.00 36 1008.6
20260504110103 39 153 0.0 2.6 0.00 0.00 0.00 46 1011.8
20260504081547 40 134 0.0 1.7 0.00 0.00 0.00 59 1011.4
20260504050018 42 222 0.0 0.0 0.00 0.00 0.00 67 1012.0
20260504044519 42 222 0.0 0.0 0.00 0.00 0.00 67 1012.1
20260504043027 42 222 0.0 0.0 0.00 0.00 0.00 68 1012.3
20260504041512 42 222 0.0 0.0 0.00 0.00 0.00 68 1012.3
20260504040012 42 222 0.0 0.0 0.00 0.00 0.00 68 1012.2
20260504034509 41 222 0.0 0.0 0.00 0.00 0.00 69 1012.1
20260504033009 41 222 0.0 0.0 0.00 0.00 0.00 69 1012.1
20260504031509 41 222 0.0 0.0 0.00 0.00 0.00 70 1012.1
20260504030015 41 222 0.0 0.0 0.00 0.00 0.00 70 1012.0
20260504024510 42 222 0.0 0.0 0.00 0.00 0.00 70 1011.9
20260504023007 43 222 0.0 0.0 0.00 0.00 0.00 68 1011.9
20260504021506 44 222 0.0 0.0 0.00 0.00 0.00 67 1011.9
20260504020008 44 222 0.0 0.0 0.00 0.00 0.00 66 1011.9
20260504014508 44 222 0.0 0.0 0.00 0.00 0.00 65 1012.0
20260504013014 45 222 0.0 0.0 0.00 0.00 0.00 63 1011.9
20260504011503 46 222 0.0 0.0 0.00 0.00 0.00 60 1011.7
20260504010002 48 222 0.0 0.0 0.00 0.00 0.00 58 1011.3
20260504004503 49 222 0.0 0.0 0.00 0.00 0.00 55 1011.2
20260504003005 51 222 0.0 3.5 0.00 0.00 0.00 50 1011.2
20260504001502 51 182 0.0 2.6 0.00 0.00 0.00 48 1010.9
20260504000000 52 176 0.0 2.6 0.00 0.00 0.00 46 1010.9
20260503234502 52 178 0.0 0.9 0.00 0.00 0.00 46 1010.7
20260503233107 53 178 0.0 2.6 0.00 0.00 0.00 43 1010.5
20260503231600 53 199 0.0 4.3 0.00 0.00 0.00 42 1010.4
20260503230116 53 163 1.7 6.1 0.00 0.00 0.00 40 1010.2
20260503224606 54 209 0.9 4.3 0.00 0.00 0.00 37 1010.1
20260503223057 54 215 0.0 5.2 0.00 0.00 0.00 37 1010.0
20260503221604 54 221 0.0 7.0 0.00 0.00 0.00 35 1009.9
20260503220057 54 243 0.9 7.8 0.00 0.00 0.00 33 1009.8